Regional Weather Roundup
Issued by NWS

Home | Current Version | Previous Version | Text Only | Print | Product List | Glossary On
Versions: 1 2 3 4 5 6 7 8 9 10 11 12 13 14 15 16 17 18 19 20 21 22 23 24 25 26 27 28 29 30 31 32 33 34 35 36 37 38 39 40 41 42 43 44 45 46 47 48 49 50
000
ASUS43 KIND 060609
RWRIN

WEATHER ROUNDUP FOR INDIANA
NATIONAL WEATHER SERVICE INDIANAPOLIS IN
100 AM EST FRI MAR 06 2015

NOTE: "FAIR" INDICATES FEW OR NO CLOUDS BELOW 12,000 FEET WITH NO
SIGNIFICANT WEATHER AND/OR OBSTRUCTIONS TO VISIBILITY.

* - STATION DOES NOT REPORT WEATHER SUCH AS PRECIPITATION OR FOG.

+ - STATION NOT QUALITY CONTROLLED BY THE NATIONAL WEATHER SERVICE.
    USE DATA WITH CAUTION...ESPECIALLY DEWPOINT AND RELATIVE
    HUMIDITY OBSERVATIONS.

INZ001>003-010>013-019-020-060700-
NORTHWEST INDIANA

CITY           SKY/WX    TMP DP  RH WIND       PRES   REMARKS
GARY /AIRPORT/ PTCLDY    10  -2  56 SW3       30.55F
KNOX *+          N/A      3 -13  47 W6        30.53F WCI  -8
LA PORTE +     PTCLDY     6  -2  68 SW5       30.53S WCI  -3
6HR MIN TEMP:   1; 6HR MAX TEMP:  14;

MICHIGAN CITY+ PTCLDY     7  -6  56 SW5       30.53F WCI  -2
MONTICELLO +   PTCLDY    -1  -6  78 CALM      30.55F
6HR MIN TEMP:  -1; 6HR MAX TEMP:  12;

RENSSELAER +   PTCLDY     3   0  85 SW3       30.55S
VALPARAISO     PTCLDY     5  -3  69 W7        30.53F WCI  -7
6HR MIN TEMP:   5; 6HR MAX TEMP:  15;


$$

LMZ046-743>745-060700-
SOUTHERN LAKE MICHIGAN

STATION/POSITION TIME  TEMP WIND        PRES
                       AIR  DIR/SP/G
                 (UTC) (F)  (DEG/KT/KT) (MB)
MICHIGAN CITY    0600    8  190/  9/  9   N/A

$$

INZ004-005-014>016-021>024-060700-
NORTH CENTRAL INDIANA

CITY           SKY/WX    TMP DP  RH WIND       PRES   REMARKS
GOSHEN         MOCLDY     3  -2  79 SW8       30.51R WCI -10
6HR MIN TEMP:   0; 6HR MAX TEMP:  12;

LOGANSPORT +   PTCLDY    -2  -6  84 SW3       30.55F
PERU/GRISSOM   MOCLDY     2  -4  75 W6        30.52F WCI  -9
6HR MIN TEMP:   2; 6HR MAX TEMP:  13;

ROCHESTER +    PTCLDY     9   1  72 SW6       30.53F WCI  -1
SOUTH BEND     MOCLDY     5  -1  76 CALM      30.52S
6HR MIN TEMP:   4; 6HR MAX TEMP:  14;

WARSAW +       PTCLDY     5   0  78 W6        30.51S WCI  -6

$$

INZ006>009-017-018-025>027-060700-
NORTHEAST INDIANA

CITY           SKY/WX    TMP DP  RH WIND       PRES   REMARKS
ANGOLA *+      CLEAR      0  -2  92 CALM      30.47S
AUBURN +       PTCLDY     5   1  85 SW3       30.52R
FORT WAYNE     PTCLDY     2  -2  83 W6        30.53S WCI  -9
6HR MIN TEMP:   1; 6HR MAX TEMP:  13;

HUNTINGTON +   PTCLDY     7  -3  63 W3        30.53S
6HR MIN TEMP:   4; 6HR MAX TEMP:  16;


$$

INZ028-029-035-036-043>045-051>053-060700-
WEST CENTRAL INDIANA

CITY           SKY/WX    TMP DP  RH WIND       PRES   REMARKS
CRAWFORDSVL +  MOCLDY    -1  -7  75 CALM      30.55F
6HR MIN TEMP:  -3; 6HR MAX TEMP:  10;

GREENCASTLE +  PTCLDY     3  -4  72 CALM      30.55F
LAFAYETTE      MOCLDY     1  -1  91 CALM      30.57F
6HR MIN TEMP:   0; 6HR MAX TEMP:  12;

TERRE HAUTE    MOCLDY     2  -2  83 CALM      30.59S
6HR MIN TEMP:  -2; 6HR MAX TEMP:  13;


$$

INZ030>032-037>040-046>048-054>057-064-065-060700-
CENTRAL INDIANA

CITY           SKY/WX    TMP DP  RH WIND       PRES   REMARKS
CP ATTERBURY + PTCLDY     9   5  85 CALM      30.57F
FISHERS *+     PTCLDY     5   3  92 CALM      30.54
FRANKFORT +    PTCLDY    -2  -6  86 SW3       30.55F
6HR MIN TEMP:  -6; 6HR MAX TEMP:   8;

GREENWOOD *+   PTCLDY     7  -2  66 CALM      30.55F
INDIANAPOLIS   PTCLDY     7  -2  66 W7        30.54F WCI  -5
6HR MIN TEMP:   7; 6HR MAX TEMP:  16;

-EAGLE CREEK   PTCLDY     7  -1  70 NW5       30.54F WCI  -2
6HR MIN TEMP:   7; 6HR MAX TEMP:  16;

KOKOMO *+        N/A    N/A N/A N/A MISG        N/A
MARION +       MOCLDY     1  -4  77 CALM      30.54S
MT COMFORT *+  PTCLDY     5  -6  61 CALM      30.54F
SHELBYVILLE    PTCLDY     8   2  76 CALM      30.55S
6HR MIN TEMP:   7; 6HR MAX TEMP:  20;

ZIONSVILLE +   PTCLDY     4  -4  71 CALM      30.53F
6HR MIN TEMP:   4; 6HR MAX TEMP:  15;


$$

INZ033-034-041-042-049-050-058-059-060700-
EAST CENTRAL INDIANA

CITY           SKY/WX    TMP DP  RH WIND       PRES   REMARKS
MUNCIE         PTCLDY     8   2  76 W3        30.53S
6HR MIN TEMP:   6; 6HR MAX TEMP:  15;


$$

INZ060-061-067>069-081>083-085>088-060700-
SOUTHWEST INDIANA

CITY           SKY/WX    TMP DP  RH WIND       PRES   REMARKS
EVANSVILLE     PTCLDY     8   1  73 N3        30.61F
6HR MIN TEMP:   8; 6HR MAX TEMP:  19;

HUNTINGBURG *+ PTCLDY    10   0  61 N6        30.60R WCI   1
6HR MIN TEMP:  10; 6HR MAX TEMP:  18;

WASHINGTON +   PTCLDY     8  -1  69 CALM      30.60R
6HR MIN TEMP:   6; 6HR MAX TEMP:  14;


$$

INZ062-063-066-070>080-084-089>092-060700-
SOUTH CENTRAL AND SOUTHEAST INDIANA

CITY           SKY/WX    TMP DP  RH WIND       PRES   REMARKS
BEDFORD +      CLEAR     10   3  72 CALM      30.56F
BLOOMINGTON    CLEAR      3  -1  83 CALM      30.55F
6HR MIN TEMP:   3; 6HR MAX TEMP:  19;

NORTH VERNON + PTCLDY     9   7  92 CALM      30.56S
SEYMOUR +      PTCLDY     5   0  78 CALM      30.58S

$$




USA.gov is the U.S. government's official web portal to all federal, state and local government web resources and services.